www.pogodaiklimat.ru

Погода и климат >> Архив погоды >> Мали >> Kita


ПОГОДА в Kita

  • Прогноз погоды в Kita
  • Монитор погоды в Kita
  • Климат города

АРХИВ ПОГОДЫ в Kita

Время (UTC), дата Ветер
(напр.,м/с)
 
Видим.   Явления Облачность Т
(С)
Тd
(С)
f
(%)
Тe
(С)
Тes
(С)
Комфортность P
(гПа)
Po
(гПа)
Тmin
(С)
Tmax
(С)
R
(мм)
R24
(мм)
S
(см)
21 4.12 штиль 0 10 км 4/0
[Ci sp]
+23.0 +13.0 53 +26 +26 жарко 1010.0 972.7
00 5.12 штиль 0 10 км ясно +21.1 +11.3 54 +23 +23 комфорт 1009.9 972.9
03 5.12 штиль 0 10 км ясно +20.4 +7.9 44 +21 +21 комфорт 1008.2 972.1
06 5.12 штиль 0 10 км 5/0
[Ac lent Ci sp]
+20.1 +7.9 45 +21 +21 комфорт 1009.8 972.6 +19.8
09 5.12 СВ 2 10 км ясно +27.0 +7.8 30 +27 +31 жарко 1012.1 974.8
12 5.12 В 2 10 км ясно +34.5 +7.2 19 +33 +47 жарко 1010.4 973.5
15 5.12 В 2 10 км ясно +36.1 +9.9 20 +35 +44 очень
жарко
1008.5 971.6
18 5.12 штиль 0 10 км 3/0
[Ci sp]
+32.6 +12.7 30 +33 +33 жарко 1009.3 972.2 +36.5
21 5.12 штиль 0 10 км ясно +25.5 +12.8 45 +27 +27 жарко 1011.3 974.1
00 6.12 штиль 0 10 км ясно +23.0 +11.9 50 +26 +26 жарко 1012.1 975.1
03 6.12 В 2 10 км ясно +23.3 +9.6 42 +25 +25 комфорт 1010.8 974.0
06 6.12 штиль 0 10 км ясно +23.7 +7.4 35 +24 +24 комфорт 1012.1 975.1 +21.9
09 6.12 штиль 0 10 км 3/0
[Ac lent]
+26.5 +10.8 37 +27 +32 жарко 1013.9 976.6
12 6.12 В 3 10 км 8/0
[Ci sp]
+33.0 +9.6 24 +32 +42 жарко 1012.5 975.5
15 6.12 В 2 10 км 5/0
[Ci sp]
+35.1 +12.4 25 +35 +43 очень
жарко
1010.1 973.4
18 6.12 штиль 0 10 км 6/0
[Ci sp]
+32.2 +11.3 28 +32 +32 жарко 1010.4 973.5 +35.7
21 6.12 штиль 0 10 км 4/0
[Ci sp]
+24.9 +13.9 50 +27 +27 жарко 1012.9 975.6
00 7.12 штиль 0 10 км ясно +22.4 +11.9 51 +25 +25 комфорт 1013.3 976.2
03 7.12 штиль 0 10 км ясно +20.1 +11.6 58 +22 +22 комфорт 1012.5 975.4
06 7.12 штиль 0 10 км 4/0
[Ac lent Ci sp]
+21.0 +8.5 45 +22 +22 комфорт 1013.3 976.1 +19.9
09 7.12 СВ 2 10 км 3/0
[Ac lent]
+26.2 +7.9 31 +26 +29 жарко 1015.6 978.2
12 7.12 СВ 2 10 км 3/0
[Ac lent]
+32.6 +8.9 23 +31 +42 жарко 1014.4 977.2
15 7.12 ЮВ 2 10 км 4/0
[Ac lent Ci sp]
+36.0 +10.3 21 +35 +43 очень
жарко
1011.6 974.6
18 7.12 штиль 0 10 км 4/0
[Ci sp]
+32.3 +13.0 31 +33 +33 жарко 1012.4 975.2 +36.2
21 7.12 штиль 0 10 км 4/0
[Ci sp]
+24.4 +13.7 51 +27 +27 жарко 1014.6 977.1
00 8.12 штиль 0 10 км ясно +24.0 +10.5 43 +25 +25 комфорт 1014.0 976.9
03 8.12 штиль 0 10 км ясно +20.3 +8.2 46 +21 +21 комфорт 1013.8 976.7
06 8.12 штиль 0 10 км ясно +20.6 +6.9 41 +21 +21 комфорт 1014.2 976.9 +19.4
09 8.12 В 3 10 км ясно +26.3 +7.2 30 +26 +30 жарко 1016.1 978.6
12 8.12 В 3 10 км ясно +32.7 +8.2 22 +31 +43 жарко 1014.4 977.3
15 8.12 штиль 0 10 км ясно +34.4 +8.5 20 +33 +45 жарко 1011.4 974.3
18 8.12 штиль 0 10 км ясно +31.9 +11.4 28 +32 +32 жарко 1011.9 974.7 +35.4
21 8.12 штиль 0 10 км ясно +23.0 +12.5 52 +26 +26 жарко 1014.0 976.5
00 9.12 штиль 0 10 км ясно +20.0 +10.2 53 +21 +21 комфорт 1014.2 976.9
03 9.12 штиль 0 10 км ясно +21.6 +7.1 39 +22 +22 комфорт 1013.1 976.0
06 9.12 штиль 0 10 км ясно +20.9 +6.7 40 +22 +22 комфорт 1013.9 976.6 +19.6
09 9.12 СВ 2 10 км 1/0
[Ac lent Ci sp]
+26.0 +6.4 29 +26 +29 жарко 1016.1 978.5
12 9.12 СВ 2 10 км 1/0
[Ci sp]
+32.1 +7.7 22 +31 +44 жарко 1015.4 978.0
15 9.12 СВ 2 10 км ясно +34.1 +7.9 20 +32 +41 жарко 1012.8 975.7
18 9.12 штиль 0 10 км 1/0
[Ci sp]
+31.3 +11.7 30 +32 +32 жарко 1013.2 975.9 +35.5
21 9.12 штиль 0 10 км ясно +23.5 +12.3 49 +25 +25 комфорт 1015.2 977.7
00 10.12 штиль 0 10 км ясно +21.0 +10.6 51 +23 +23 комфорт 1015.8 978.5
03 10.12 штиль 0 10 км ясно +18.0 +9.6 58 +18 +18 1010.1 977.8
06 10.12 СВ 2 10 км ясно +20.0 +5.2 38 +21 +21 комфорт 1015.0 977.6 +17.1
09 10.12 штиль 0 10 км ясно +25.3 +7.5 32 +25 +31 комфорт 1017.1 979.4
12 10.12 штиль 0 10 км ясно +32.6 +6.2 19 +31 +50 жарко 1015.7 978.4
15 10.12 штиль 0 10 км ясно +35.4 +7.1 18 +33 +46 жарко 1012.2 975.0
18 10.12 штиль 0 10 км ясно +31.2 +10.0 27 +31 +31 жарко 1013.2 975.9 +35.6
21 10.12 штиль 0 10 км ясно +23.4 +11.3 47 +26 +26 жарко 1015.0 977.4
00 11.12 штиль 0 10 км ясно +20.6 +9.1 48 +22 +22 комфорт 1014.8 977.5
03 11.12 штиль 0 10 км ясно +18.2 +8.3 52 +18 +18 1013.5 976.3
06 11.12 штиль 0 10 км ясно +17.0 +6.9 51 +17 +17 1013.8 976.2 +16.4
09 11.12 СВ 2 10 км ясно +25.4 +5.4 28 +25 +29 комфорт 1015.9 978.3
12 11.12 ЮВ 2 10 км ясно +33.1 +7.5 20 +31 +45 жарко 1014.4 977.1
15 11.12 штиль 0 10 км ясно +34.7 +6.6 18 +33 +45 жарко 1011.4 974.2
18 11.12 штиль 0 10 км ясно +31.6 +11.2 29 +32 +32 жарко 1011.9 974.4 +35.5

 

Местоположение метеостанции Kita (Мали): широта 13.07 долгота -9.47 высота над уровнем моря 334 м.

В архиве по умолчанию представлена погода в Kita за последнюю неделю. Архивные данные за месяц целиком и за предыдущие месяцы, начиная с января 2011 года, Вы можете получить, выбрав интересующий диапазон дат из раскрывающегося списка и нажав кнопку "Ввод!".


*Определитесь, кто Вы:
робот инопланетянин человек

Внимание! Время в таблицах - всемирное. Для получения местного времени необходимо прибавить поправку, которая в Kita равна 0 ч.

Смотрите также архив погоды в соседних городах и на ближайших метеорологических станциях:

Погода в Bamako (Мали) (175 км)
Погода в Kenieba (Мали) (192 км)
Погода в Nioro Du Sahel (Мали) (241 км)
Погода в Yelimane (Мали) (257 км)
Погода в Kayes (Мали) (260 км)
Погода в Bougouni (Мали) (282 км)
Погода в Kedougou (Сенегал) (302 км)
Погода в Nara (Мали) (332 км)
Погода в Segou (Мали) (361 км)
Погода в Aioun el Atrouss (Мавритания) (404 км)

Пояснения к столбцам:

Ветер - указаны скорость ветра в м/с - средняя за 10 мин, порывы в срок и между сроками (в фигурных скобках) и направление, откуда дует ветер: С - северный, СВ - северо-восточный, В - восточный, ЮВ - юго-восточный, Ю - южный, ЮЗ - юго-западный, З - западный, СЗ - северо-западный.
Видимость - горизонтальная дальность видимости в метрах или километрах. При видимости от 1 до 10 км при отсутствии осадков обычно наблюдается дымка, при ухудшении видимости до 1 км и менее - туман. В сухую погоду видимость может ухудшаться дымом, пылью или мглою.
Явления - указаны атмосферные явления, наблюдавшиеся в срок или в последний час перед сроком; фигурными скобками обозначены явления, наблюдавшиеся между сроками (за 1-3 часа до срока); квадратными скобками обозначены град или гололедные отложения с указанием их диаметра в мм.
Облачность - указаны через наклонную черту общая и нижняя облачность в баллах и высота нижней границы облаков в метрах; квадратными скобками обозначены формы облаков: Ci - перистые, Cs - перисто-слоистые, Cc - перисто-кучевые, Ac - высококучевые, As - высокослоистые, Sc - слоисто-кучевые, Ns - слоисто-дождевые, Cu - кучевые, Cb - кучево-дождевые. Подробнее классификацию облаков см. в Атласе облаков (PDF).
T - Температура воздуха - температура, измеренная на высоте 2 м над землей.
Td - Температура точки росы - температура, при понижении до которой содержащийся в воздухе водяной пар достигнет насыщения.
f - Относительная влажность воздуха - влажноcть воздуха, измеренная на высоте 2 м над землей.
Te - Эффективная температура - температура, которую ощущает одетый по сезону человек в тени. Характеристика душности погоды. При расчете учитывается влияние влажности воздуха и скорости ветра на теплоощущения человека.
Tes - Эффективная температура на солнце - температура, которую ощущает человек, с поправкой на солнечный нагрев. Характеристика знойности погоды. Зависит от высоты солнца над горизонтом, облачности и скорости ветра. Ночью, в пасмурную погоду, а также при ветре 12 м/с и более поправка равна нулю.
P - Атмосферное давление - приведенное к уровню моря атмосферное давление.
Po - Атмосферное давление - измеренное на уровне метеостанции атмосферное давление.
Tmin - Минимальная температура - минимум температуры воздуха на высоте 2 м над землей.
Tmax - Максимальная температура - максимум температуры воздуха на высоте 2 м над землей.
R - Количество осадков - Количество выпавших осадков за период времени, мм. При наведении курсора мыши на число - период времени, за который выпало указанное количество осадков.
R24 - Количество осадков - Количество выпавших осадков за 24 часа, мм.
S - Снежный покров - Высота снежного покрова, см. При наведении курсора мыши на число - состояние снежного покрова и степень покрытия местности в баллах.